SCOUT B DEB, 29279

Orbit data source: Space-Track

SCOUT B DEB, 29279 is space debris in LEO originally from a launch on Thu, 08 Aug 1968 UTC launched from the Air Force Western Test Range (AFWTR). Debris objects in space refer to the collection of defunct objects orbiting the Earth. Examples of debris include non-operational satellites, rocket bodies, and fragments generated from explosions, collisions, or faulty payload assembly.

Loading next visibility...
Identifier
29279, 1968-066N
Orbit
LEO
Country
Flag of USUS
Related business
Manufacturer
Unknown
Mission
Spacecraft
Bus & Motor
Unknown
Mass
Unknown
Launch date (UTC)
1968-08-08 (57 years ago)
Launch vehicle
Unknown
Launch site
Air Force Western Test Range (AFWTR)
Object type
Payload
Rocket body
Debris
Shape & HBR
Unknown shape, 0.1 m
Radar Cross Section
Small (<0.1 m²)

Expand to show TLE details & history
Last TLE update: 1 day ago

TLE from 1 day ago
0 SCOUT B DEB
1 29279U 68066N   25347.60143823  .00007152  00000-0  34110-2 0  9999
2 29279  80.6021 111.1507 0510892  19.8341 342.1891 13.67280885 26144
Epoch: 2025-12-13T14:26Z
TLE epoch observation values (Epoch: 2025-12-13T14:26:04.263Z)
Latitude
0.00007°
Longitude
172.10658°
Altitude
654.717 km
Speed
7.71 km/s
True Right ascension
07h 24m 36s
True Declination
0° 00' 00"
Sunlit
Object was in full shadow at epoch
Visualization orbit readout
Latitude
Unknown
Longitude
Unknown
Altitude
Unknown
Speed
Unknown
Apparent Right ascension
Unknown
Apparent Declination
Unknown
Sunlit
N/A
Visualization observer readout
Local Sidereal Time
22:59:16
Azimuth
Unknown
Elevation
Unknown
Doppler factor
Unknown
Orbital elements
Apogee altitude
1,383.882 km
Perigee altitude
629.321 km
Semi-major axis
7,384.738 km
Eccentricity
0.05109
Inclination
80.6021°
RAAN
111.1507°
Arg. of periapsis
19.8341°
True anomaly
340.28313°
Mean anomaly
342.1891°
Eccentric anomaly
341.24809°
Mean motion
3.42011 °/min
Orbital period
105.26 mins
BSTAR
0.003411
Loading maneuver chart data...
Computing Atmospheric mass density...
Loading historical data...
Loading historical data...
Loading historical data...
Loading historical data...
Loading historical data...
Loading historical data...
Loading historical data...

Documentation

Showing up to 5 results
|